Location: Dampvalley
(47.9094°N, 6.1967°E)
Time: 05:44:56
(UTC+00:00)

X-37B - Pass Details

Date: 24 September 2021
Orbit: 385 x 389 km, 45.0° (Epoch: 17 October)

Event Time Altitude Azimuth Distance (km) Brightness Sun altitude
Exits shadow 04:36:36 11° 236° (SW) 1,383 2.8 -8.9°
Maximum altitude 04:39:31 38° 167° (SSE) 611 1.6 -8.4°
Drops below altitude 10° 04:42:30 10° 97° (E) 1,416 4.9 -7.9°
Sets 04:44:39 0° 89° (E) 2,273 6.9 -7.5°
